Stations météo

réclame
Mon MeteoGroup
Hereford/Credenhill, Grande-Bretagne (3522): Température de l'air & dewpoint: 08.08.2020 20:00:00 - 14.08.2020 20:00:00 (BST)Hereford/Credenhill, Grande-Bretagne (3522): Température de l'air -20cm & Température de l'air -100cm: 08.08.2020 20:00:00 - 14.08.2020 20:00:00 (BST)Hereford/Credenhill, Grande-Bretagne (3522): Vitesse du vent & gusts: 08.08.2020 20:00:00 - 14.08.2020 20:00:00 (BST)Hereford/Credenhill, Grande-Bretagne (3522): Direction du vent: 08.08.2020 20:00:00 - 14.08.2020 20:00:00 (BST)Hereford/Credenhill, Grande-Bretagne (3522): reduced air pressure: 08.08.2020 20:00:00 - 14.08.2020 20:00:00 (BST)Hereford/Credenhill, Grande-Bretagne (3522): visibility: 08.08.2020 20:00:00 - 14.08.2020 20:00:00 (BST)Hereford/Credenhill, Grande-Bretagne (3522): Quantités de précipitations: 08.08.2020 20:00:00 - 14.08.2020 20:00:00 (BST)
Date & Time tt [°C] td [°C] tt -20cm [°C] tt -100cm [°C] ff [km/h] ff [knt] fx [km/h] fx [knt] dd ppp [hPa] vv [km] rr [mm]
14.08.2020 20:00:00 21,4 17,7 - - 4 2 - - WSW 1014,8 6 0,0
14.08.2020 19:00:00 22,8 17,8 - - 2 1 - - WSW 1014,6 7 0,0
14.08.2020 18:00:00 23,0 17,2 - - 4 2 - - S 1014,5 7 0,0
14.08.2020 17:00:00 22,6 16,4 - - 4 2 - - E 1014,4 7 0,0
14.08.2020 16:00:00 21,4 16,7 - - 5 3 - - WNW 1014,7 7 0,0
14.08.2020 15:00:00 19,8 15,9 - - 8 4 - - N 1015,1 6 0,0
14.08.2020 14:00:00 18,9 15,8 - - 8 4 - - NW 1015,5 6 0,0
14.08.2020 13:00:00 18,2 15,7 - - 8 4 - - N 1015,8 5 0,0
14.08.2020 12:00:00 17,6 15,6 - - 8 4 - - NE 1015,5 5 0,0
14.08.2020 11:00:00 17,2 15,5 - - 9 5 - - NE 1015,6 6 0,0
14.08.2020 10:00:00 16,9 15,3 19,7 16,4 9 5 - - NNE 1015,5 6 0,0
14.08.2020 09:00:00 16,8 15,5 - - 9 5 - - NE 1015,3 5 0,0
14.08.2020 08:00:00 17,0 15,5 - - 9 5 - - NNE 1015,0 4,8 0,0
14.08.2020 07:00:00 17,0 15,5 - - 13 7 - - NNE 1014,6 4,7 0,0
14.08.2020 06:00:00 17,4 15,8 - - 11 6 - - NE 1014,4 4,8 0,0
14.08.2020 05:00:00 17,6 16,0 - - 11 6 - - NE 1014,3 4,6 0,0
14.08.2020 04:00:00 18,0 16,3 - - 9 5 - - NNW 1014,2 4,6 0,0
14.08.2020 03:00:00 18,4 16,5 - - 9 5 - - NE 1014,9 5 0,0
14.08.2020 02:00:00 18,8 16,7 - - 13 7 - - NE 1014,7 6 0,0
14.08.2020 01:00:00 19,5 17,1 - - 9 5 - - NNE 1014,5 7 0,0
14.08.2020 00:00:00 19,7 17,8 - - 2 1 - - N 1014,1 4,7 0,0
13.08.2020 23:00:00 19,0 17,8 - - 5 3 - - WNW 1014,4 4,2 0,0
13.08.2020 22:00:00 19,8 17,6 - - 4 2 - - NW 1014,6 5 0,0
13.08.2020 21:00:00 20,0 17,5 - - 5 3 - - E 1014,3 5 0,0
13.08.2020 20:00:00 20,4 17,5 - - 13 7 - - ENE 1014,2 6 0,0
13.08.2020 19:00:00 21,1 17,9 - - 9 5 - - ENE 1014,0 6 0,0
13.08.2020 18:00:00 21,0 18,1 - - 9 5 - - E 1013,8 7 0,0
13.08.2020 17:00:00 21,1 18,1 - - 13 7 - - ENE 1014,1 7 0,0
13.08.2020 16:00:00 21,3 18,9 - - 11 6 - - NE 1013,7 5 0,0
13.08.2020 15:00:00 20,4 18,6 - - 2 1 - - SW 1013,8 4,5 0,0
13.08.2020 14:00:00 19,8 17,8 - - 11 6 - - ENE 1014,5 1,8 3,6
13.08.2020 13:00:00 22,4 18,6 - - 18 10 - - ENE 1014,2 6 0,0
13.08.2020 12:00:00 22,7 18,3 - - 11 6 - - NE 1013,6 6 0,0
13.08.2020 11:00:00 21,7 18,9 - - 9 5 - - NE 1013,7 5 0,0
13.08.2020 10:00:00 20,5 18,2 19,7 16,2 8 4 - - N 1013,9 5 0,0
13.08.2020 09:00:00 20,2 18,4 - - 4 2 - - NNW 1013,8 5 0,0
13.08.2020 08:00:00 19,2 19,0 - - 4 2 - - W 1013,8 5 0,0
13.08.2020 07:00:00 18,5 18,2 - - 4 2 - - W 1013,6 4,1 0,0
13.08.2020 06:00:00 18,2 18,0 - - 4 2 - - W 1013,5 5 0,0
13.08.2020 05:00:00 18,0 17,6 - - 2 1 - - S 1013,0 3,6 0,0
13.08.2020 04:00:00 18,4 17,8 - - 5 3 - - WNW 1013,0 8 0,0
13.08.2020 03:00:00 18,7 17,6 - - 2 1 - - NNE 1013,3 9 0,0
13.08.2020 02:00:00 19,4 18,0 - - 5 3 - - N 1013,8 9 2,8
13.08.2020 01:00:00 19,4 18,7 - - 9 5 - - N 1014,3 3,0 2,4
13.08.2020 00:00:00 20,1 18,7 - - 11 6 - - ENE 1015,4 4,7 1,2
12.08.2020 23:00:00 20,3 18,6 - - 21 11 - - NNW 1013,9 10 1,8
12.08.2020 22:00:00 19,8 18,9 - - 13 7 - - NW 1015,0 2,0 10,4
12.08.2020 21:00:00 20,5 19,5 - - 9 5 48 26 NW 1014,0 8 9,8
12.08.2020 20:00:00 20,5 19,4 - - 8 4 46 25 W 1012,5 5 11,2
12.08.2020 19:00:00 24,2 20,6 - - 8 4 - - N 1010,6 10 8,0
12.08.2020 18:00:00 24,7 19,4 - - 2 1 - - WSW 1011,2 4,5 0,8
12.08.2020 17:00:00 32,5 17,7 - - 8 4 - - NE 1011,0 10 0,0
12.08.2020 16:00:00 32,5 18,0 - - 5 3 - - ENE 1011,7 11 0,0
12.08.2020 15:00:00 32,6 18,0 - - 8 4 - - ENE 1012,2 12 0,0
12.08.2020 14:00:00 31,5 18,6 - - 5 3 - - ENE 1012,8 10 0,0
12.08.2020 13:00:00 29,7 18,9 - - 9 5 - - E 1013,3 10 0,0
12.08.2020 12:00:00 28,2 19,3 - - 8 4 - - ENE 1013,5 9 0,0
12.08.2020 11:00:00 26,3 18,9 - - 5 3 - - E 1013,9 8 0,0
12.08.2020 10:00:00 24,7 18,5 19,0 15,7 5 3 - - N 1013,9 8 0,0
12.08.2020 09:00:00 23,2 18,5 - - 8 4 - - ENE 1013,9 7 0,0
12.08.2020 08:00:00 20,3 18,9 - - 4 2 - - SSW 1013,8 7 0,0
12.08.2020 07:00:00 18,0 17,7 - - 4 2 - - SSW 1014,0 5 0,0
12.08.2020 06:00:00 17,8 17,3 - - 4 2 - - WSW 1014,1 3,9 0,0
12.08.2020 05:00:00 18,3 17,7 - - 4 2 - - WSW 1014,3 3,5 0,0
12.08.2020 04:00:00 18,9 18,0 - - 4 2 - - W 1014,7 4,2 0,0
12.08.2020 03:00:00 19,4 17,9 - - 2 1 - - NNW 1014,4 5 0,0
12.08.2020 02:00:00 19,8 18,3 - - 4 2 - - NW 1014,1 5 0,0
12.08.2020 01:00:00 20,7 18,5 - - 5 3 - - WNW 1014,2 8 0,0
12.08.2020 00:00:00 21,4 18,7 - - 5 3 - - W 1014,4 8 0,0
11.08.2020 23:00:00 22,2 18,5 - - 5 3 - - W 1014,2 8 0,0
11.08.2020 22:00:00 24,0 18,8 - - 8 4 - - W 1014,5 7 0,0
11.08.2020 21:00:00 25,2 18,8 - - 8 4 - - W 1014,2 9 0,0
11.08.2020 20:00:00 27,8 18,1 - - 5 3 - - NNW 1013,7 10 0,0
11.08.2020 19:00:00 29,0 17,7 - - 8 4 - - NW 1013,3 11 0,0
11.08.2020 18:00:00 30,7 17,3 - - 4 2 - - SE 1013,3 10 0,0
11.08.2020 17:00:00 30,9 17,4 - - 5 3 - - N 1013,6 10 0,0
11.08.2020 16:00:00 30,5 17,8 - - 5 3 - - E 1014,0 11 0,0
11.08.2020 15:00:00 30,2 18,3 - - 5 3 - - ESE 1014,5 11 0,0
11.08.2020 14:00:00 28,9 18,3 - - 5 3 - - S 1014,8 9 0,0
11.08.2020 13:00:00 27,1 18,2 - - 5 3 - - SSE 1015,2 9 0,0
11.08.2020 12:00:00 25,5 18,5 - - 8 4 - - ENE 1015,6 8 0,0
11.08.2020 11:00:00 24,5 18,8 - - 5 3 - - NE 1015,7 7 0,0
11.08.2020 10:00:00 22,4 17,8 18,4 15,7 8 4 - - ENE 1015,8 5 0,0
11.08.2020 09:00:00 20,9 17,3 - - 8 4 - - NE 1016,0 5 0,0
11.08.2020 08:00:00 19,2 17,6 - - 4 2 - - W 1016,0 5 0,0
11.08.2020 07:00:00 16,6 15,8 - - 4 2 - - W 1015,8 3,7 0,0
11.08.2020 06:00:00 17,4 16,1 - - 5 3 - - WNW 1015,7 4,8 0,0
11.08.2020 05:00:00 18,1 16,6 - - 5 3 - - WNW 1015,2 5 0,0
11.08.2020 04:00:00 18,3 16,4 - - 4 2 - - W 1015,1 5 0,0
11.08.2020 03:00:00 18,9 16,7 - - 8 4 - - WNW 1015,1 6 0,0
11.08.2020 02:00:00 19,1 16,7 - - 5 3 - - W 1014,9 6 0,0
11.08.2020 01:00:00 19,8 16,7 - - 5 3 - - WNW 1015,1 7 0,0
11.08.2020 00:00:00 20,5 17,1 - - 8 4 - - WNW 1015,2 7 0,0
10.08.2020 23:00:00 20,4 17,0 - - 9 5 - - W 1015,0 7 0,0
10.08.2020 22:00:00 21,4 16,9 - - 5 3 - - WNW 1014,9 8 0,0
10.08.2020 21:00:00 23,2 17,8 - - 5 3 - - WNW 1014,5 8 0,0
10.08.2020 20:00:00 24,2 18,1 - - 5 3 - - NNW 1014,0 8 0,0
10.08.2020 19:00:00 25,0 18,3 - - 9 5 - - NNW 1013,8 8 0,0
10.08.2020 18:00:00 25,9 18,7 - - 13 7 - - WNW 1014,0 8 0,0
10.08.2020 17:00:00 26,7 18,2 - - 16 9 - - W 1014,1 8 0,0
10.08.2020 16:00:00 27,6 17,3 - - 8 4 - - NNW 1014,6 8 0,0
10.08.2020 15:00:00 26,8 16,5 - - 5 3 - - ENE 1015,1 8 0,0
10.08.2020 14:00:00 26,3 16,9 - - 5 3 - - ENE 1015,1 8 0,0
10.08.2020 13:00:00 24,6 16,9 - - 9 5 - - N 1014,8 7 0,0
10.08.2020 12:00:00 22,2 16,8 - - 8 4 - - NNE 1015,3 7 0,0
10.08.2020 11:00:00 19,6 16,5 - - 11 6 - - NE 1015,9 6 0,0
10.08.2020 10:00:00 18,5 15,9 18,0 15,7 13 7 - - NNE 1016,2 6 0,0
10.08.2020 09:00:00 17,5 15,8 - - 8 4 - - N 1016,6 4,9 0,0
10.08.2020 08:00:00 17,1 15,6 - - 9 5 - - NE 1016,6 4,6 0,0
10.08.2020 07:00:00 16,2 15,4 - - 2 1 - - WSW 1016,4 4,8 0,0
10.08.2020 06:00:00 15,7 14,5 - - 2 1 - - WNW 1016,4 4,7 0,0
10.08.2020 05:00:00 16,9 15,3 - - 4 2 - - NNE 1016,7 6 0,0
10.08.2020 04:00:00 17,3 15,2 - - 5 3 - - WNW 1017,1 5 0,0
10.08.2020 03:00:00 17,8 15,5 - - 4 2 - - NNW 1017,1 6 0,0
10.08.2020 02:00:00 18,0 15,5 - - 5 3 - - NW 1017,4 6 0,0
10.08.2020 01:00:00 17,7 15,4 - - 5 3 - - WNW 1017,6 6 0,0
10.08.2020 00:00:00 18,1 15,2 - - 5 3 - - WNW 1017,8 6 0,0
09.08.2020 23:00:00 18,4 15,2 - - 4 2 - - W 1017,8 6 0,0
09.08.2020 22:00:00 19,0 15,3 - - 9 5 - - WNW 1017,8 6 0,0
09.08.2020 21:00:00 19,4 15,2 - - 9 5 - - W 1017,5 7 0,0
09.08.2020 20:00:00 21,3 15,4 - - 11 6 - - W 1017,6 7 0,0
09.08.2020 19:00:00 22,7 15,6 - - 9 5 - - W 1017,6 7 0,0
09.08.2020 18:00:00 23,2 15,7 - - 8 4 - - W 1017,7 8 0,0
09.08.2020 17:00:00 22,1 15,3 - - 4 2 - - E 1018,6 8 0,0
09.08.2020 16:00:00 20,7 15,0 - - 8 4 - - NNE 1019,1 7 0,0
09.08.2020 15:00:00 19,3 14,5 - - 8 4 - - N 1019,5 7 0,0
09.08.2020 14:00:00 18,6 14,4 - - 5 3 - - NE 1019,9 7 0,0
09.08.2020 13:00:00 17,5 14,1 - - 9 5 - - NNE 1020,3 7 0,0
09.08.2020 12:00:00 16,9 14,1 - - 9 5 - - NNE 1020,5 6 0,0
09.08.2020 11:00:00 16,6 13,8 - - 11 6 - - NE 1020,7 6 0,0
09.08.2020 10:00:00 16,2 13,7 18,2 15,5 9 5 - - NE 1021,1 6 0,0
09.08.2020 09:00:00 15,7 13,7 - - 9 5 - - NNE 1021,3 6 0,0
09.08.2020 08:00:00 15,5 13,5 - - 9 5 - - NNE 1021,6 6 0,0
09.08.2020 07:00:00 15,6 13,3 - - 13 7 - - NNE 1021,8 6 0,0
09.08.2020 06:00:00 16,0 13,5 - - 11 6 - - NE 1021,5 6 0,0
09.08.2020 05:00:00 16,3 13,6 - - 11 6 - - NNE 1021,5 5 0,0
09.08.2020 04:00:00 16,7 13,9 - - 13 7 - - ENE 1021,9 6 0,0
09.08.2020 03:00:00 16,6 13,6 - - 5 3 - - N 1022,1 8 0,0
09.08.2020 02:00:00 17,2 13,0 - - 9 5 - - NNE 1021,9 8 0,0
09.08.2020 01:00:00 18,3 13,0 - - 5 3 - - NNE 1021,8 9 0,0
09.08.2020 00:00:00 19,4 13,3 - - 11 6 - - NE 1021,6 8 0,0
08.08.2020 23:00:00 20,7 13,7 - - 13 7 - - ENE 1021,3 9 0,0
08.08.2020 22:00:00 22,7 15,3 - - 15 8 - - NE 1021,0 11 0,0
08.08.2020 21:00:00 24,2 16,0 - - 13 7 - - NE 1020,2 11 0,0
08.08.2020 20:00:00 26,2 16,7 - - 16 9 - - NE 1019,7 12 0,0

tt = Température de l'air
td = dewpoint
tt -20cm = Température de l'air -20cm
tt -100cm = Température de l'air -100cm
ff = Vitesse du vent
fx = gusts
dd = Direction du vent
ppp = reduced air pressure
vv = visibility
rr = Quantités de précipitations

stations d'obs. à proximité